Location: Gönnheim
(49.4488°N, 8.2383°E)
Time: 05:49:54
(UTC+00:00)

NOSS 2-1 (E) - Pass Details

Date: 19 May 2025
Orbit: 385 x 1749 km, 63.3° (Epoch: 07 May)

Event Time Altitude Azimuth Distance (km) Brightness Sun altitude
Exits shadow 22:21:20 43° 85° (E) 595 3.3 -19.2°
Drops below altitude 10° 22:23:42 10° 51° (NE) 1,439 5.7 -19.3°
Sets 22:25:38 0° 46° (NE) 2,279 6.9 -19.4°
